.::Владивостокский МуЗыКаЛьНо-ТяЖёЛыЙ Форум::.(ВМТФ)::Обще-Российский::.

Информация о пользователе

Привет, Гость! Войдите или зарегистрируйтесь.



Музыка прочих стилей и языков

Тем 1 страница 30 из 16330

Тема Ответов Просмотров Последнее сообщение
0 4 2020-03-17 10:04:19  Cadencealida
0 28 2019-08-04 02:07:45  LenaD
0 8 2019-07-30 03:52:51  ffefef4
4 Amberg Tunnel 2  ffefef4
0 4 2019-07-30 02:58:46  ffefef4
0 5 2019-07-29 06:57:51  ffefef4
0 5 2019-07-29 06:46:51  ffefef4
0 6 2019-07-29 04:51:52  ffefef4
8 GEO5 v2017  ffefef4
0 4 2019-07-29 04:42:15  ffefef4
0 4 2019-07-29 02:55:21  ffefef4
0 4 2019-07-29 02:48:37  ffefef4
0 4 2019-07-29 01:04:30  ffefef4
12 GE historain v7.0  ffefef4
0 4 2019-07-29 01:00:37  ffefef4
0 4 2019-07-28 23:16:00  ffefef4
14 GE IFIX v5.9  ffefef4
0 4 2019-07-28 23:14:28  ffefef4
0 4 2019-07-28 21:24:55  ffefef4
16 GE Fanuc iFix v5.8  ffefef4
0 5 2019-07-28 21:23:55  ffefef4
0 5 2019-07-28 07:41:23  ffefef4
0 4 2019-07-28 05:52:59  ffefef4
0 5 2019-07-28 05:33:36  ffefef4
0 4 2019-07-28 03:48:15  ffefef4
0 4 2019-07-28 03:32:33  ffefef4
0 5 2019-07-28 01:52:57  ffefef4
0 6 2019-07-28 01:41:21  ffefef4
0 4 2019-07-28 00:05:27  ffefef4
0 4 2019-07-27 23:56:27  ffefef4
0 6 2019-07-27 22:14:31  ffefef4
0 4 2019-07-27 22:09:07  ffefef4
28 AVL workspace v2018  ffefef4
0 5 2019-07-27 20:08:15  ffefef4
29 Frnc 5PC v9.1.1  ffefef4
0 5 2019-07-27 20:05:16  ffefef4
30 AVL PreonLab v2.3  ffefef4
0 4 2019-07-27 06:35:00  ffefef4